Location: Chatham
(39.6760°N, 89.7040°W)
Time: 22:16:07
(UTC-05:00)

Hubble Space Telescope - Visible Passes

Search period start: 21 July 2018 00:00
Search period end: 31 July 2018 00:00
Orbit: 537 x 541 km, 28.5° (Epoch: 21 July)

Date Brightness Start Highest point End Pass type
(mag) Time Alt. Az. Time Alt. Az. Time Alt. Az.
21 Jul 2.7 04:02:44 15° SSE 04:02:44 15° SSE 04:04:17 10° SE visible
22 Jul 3.1 03:53:17 12° SSE 03:53:17 12° SSE 03:53:44 10° SE visible
29 Jul 2.8 21:24:04 10° SSW 21:25:45 12° SSE 21:25:45 12° SSE visible
30 Jul 2.7 21:13:10 10° SSW 21:15:20 14° SSE 21:16:15 13° SSE visible
